date,time,SUV Intensity [MED/Hr],UV Index,Daily total [MED],Since Last [MED]
18/10/2022,00:01:38,0.000,0.0,0.0,0.0
18/10/2022,00:02:38,-0.001,0.0,0.0,0.0
18/10/2022,00:03:38,0.001,0.0,0.0,0.0
18/10/2022,00:04:38,0.000,0.0,0.0,0.0
18/10/2022,00:05:38,0.000,0.0,0.0,0.0
18/10/2022,00:06:37,0.001,0.0,0.0,0.0
18/10/2022,00:07:38,-0.001,0.0,0.0,0.0
18/10/2022,00:08:38,0.001,0.0,0.0,0.0
18/10/2022,00:09:38,0.001,0.0,0.0,0.0
18/10/2022,00:10:38,-0.001,0.0,0.0,0.0
18/10/2022,00:11:38,0.000,0.0,0.0,0.0
18/10/2022,00:12:38,-0.000,0.0,0.0,0.0
18/10/2022,00:13:37,0.001,0.0,0.0,0.0
18/10/2022,00:14:38,0.000,0.0,0.0,0.0
18/10/2022,00:15:38,0.000,0.0,0.0,0.0
18/10/2022,00:16:37,0.000,0.0,0.0,0.0
18/10/2022,00:17:38,0.000,0.0,0.0,0.0
18/10/2022,00:18:38,0.000,0.0,0.0,0.0
18/10/2022,00:19:37,-0.001,0.0,0.0,0.0
18/10/2022,00:20:38,0.000,0.0,0.0,0.0
18/10/2022,00:21:38,0.001,0.0,0.0,0.0
18/10/2022,00:22:38,0.000,0.0,0.0,0.0
18/10/2022,00:23:37,0.000,0.0,0.0,0.0
18/10/2022,00:24:38,0.001,0.0,0.0,0.0
18/10/2022,00:25:38,0.001,0.0,0.0,0.0
18/10/2022,00:26:38,0.000,0.0,0.0,0.0
18/10/2022,00:27:38,0.001,0.0,0.0,0.0
18/10/2022,00:28:38,0.000,0.0,0.0,0.0
18/10/2022,00:29:38,-0.001,0.0,0.0,0.0
18/10/2022,00:30:38,0.001,0.0,0.0,0.0
18/10/2022,00:31:38,0.000,0.0,0.0,0.0
18/10/2022,00:32:38,0.000,0.0,0.0,0.0
18/10/2022,00:33:38,0.000,0.0,0.0,0.0
18/10/2022,00:34:38,0.000,0.0,0.0,0.0
18/10/2022,00:35:37,0.000,0.0,0.0,0.0
18/10/2022,00:36:38,0.001,0.0,0.0,0.0
18/10/2022,00:37:38,0.000,0.0,0.0,0.0
18/10/2022,00:38:38,0.000,0.0,0.0,0.0
18/10/2022,00:39:38,0.000,0.0,0.0,0.0
18/10/2022,00:40:38,0.000,0.0,0.0,0.0
18/10/2022,00:41:38,0.000,0.0,0.0,0.0
18/10/2022,00:42:38,0.001,0.0,0.0,0.0
18/10/2022,00:43:38,0.000,0.0,0.0,0.0
18/10/2022,00:44:38,0.000,0.0,0.0,0.0
18/10/2022,00:45:38,0.000,0.0,0.0,0.0
18/10/2022,00:46:38,0.000,0.0,0.0,0.0
18/10/2022,00:47:38,0.000,0.0,0.0,0.0
18/10/2022,00:48:38,0.001,0.0,0.0,0.0
18/10/2022,00:49:38,0.000,0.0,0.0,0.0
18/10/2022,00:50:38,0.000,0.0,0.0,0.0
18/10/2022,00:51:38,0.001,0.0,0.0,0.0
18/10/2022,00:52:38,-0.001,0.0,0.0,0.0
18/10/2022,00:53:38,-0.001,0.0,0.0,0.0
18/10/2022,00:54:38,0.000,0.0,0.0,0.0
18/10/2022,00:55:38,0.002,0.0,0.0,0.0
18/10/2022,00:56:38,0.000,0.0,0.0,0.0
18/10/2022,00:57:38,0.000,0.0,0.0,0.0
18/10/2022,00:58:38,-0.000,0.0,0.0,0.0
18/10/2022,00:59:38,-0.000,0.0,0.0,0.0
18/10/2022,01:00:38,0.001,0.0,0.0,0.0
18/10/2022,01:01:38,0.001,0.0,0.0,0.0
18/10/2022,01:02:38,0.000,0.0,0.0,0.0
18/10/2022,01:03:38,0.001,0.0,0.0,0.0
18/10/2022,01:04:38,0.001,0.0,0.0,0.0
18/10/2022,01:05:39,0.000,0.0,0.0,0.0
18/10/2022,01:06:38,0.000,0.0,0.0,0.0
18/10/2022,01:07:38,-0.000,0.0,0.0,0.0
18/10/2022,01:08:38,0.001,0.0,0.0,0.0
18/10/2022,01:09:39,0.001,0.0,0.0,0.0
18/10/2022,01:10:38,0.001,0.0,0.0,0.0
18/10/2022,01:11:38,0.001,0.0,0.0,0.0
18/10/2022,01:12:38,0.002,0.0,0.0,0.0
18/10/2022,01:13:39,0.001,0.0,0.0,0.0
18/10/2022,01:14:38,0.002,0.0,0.0,0.0
18/10/2022,01:15:38,0.000,0.0,0.0,0.0
18/10/2022,01:16:38,0.001,0.0,0.0,0.0
18/10/2022,01:17:38,-0.000,0.0,0.0,0.0
18/10/2022,01:18:38,0.001,0.0,0.0,0.0
18/10/2022,01:19:38,0.001,0.0,0.0,0.0
18/10/2022,01:20:38,0.000,0.0,0.0,0.0
18/10/2022,01:21:38,0.000,0.0,0.0,0.0
18/10/2022,01:22:38,0.001,0.0,0.0,0.0
18/10/2022,01:23:38,0.001,0.0,0.0,0.0
18/10/2022,01:24:38,0.000,0.0,0.0,0.0
18/10/2022,01:25:38,0.002,0.0,0.0,0.0
18/10/2022,01:26:38,0.001,0.0,0.0,0.0
18/10/2022,01:27:38,0.001,0.0,0.0,0.0
18/10/2022,01:28:38,0.001,0.0,0.0,0.0
18/10/2022,01:29:38,0.002,0.0,0.0,0.0
18/10/2022,01:30:38,0.000,0.0,0.0,0.0
18/10/2022,01:31:38,0.001,0.0,0.0,0.0
18/10/2022,01:32:38,0.002,0.0,0.0,0.0
18/10/2022,01:33:38,0.000,0.0,0.0,0.0
18/10/2022,01:34:38,0.001,0.0,0.0,0.0
18/10/2022,01:35:38,0.001,0.0,0.0,0.0
18/10/2022,01:36:38,-0.000,0.0,0.0,0.0
18/10/2022,01:37:38,-0.000,0.0,0.0,0.0
18/10/2022,01:38:38,0.001,0.0,0.0,0.0
18/10/2022,01:39:38,0.001,0.0,0.0,0.0
18/10/2022,01:40:38,0.000,0.0,0.0,0.0
18/10/2022,01:41:39,-0.000,0.0,0.0,0.0
18/10/2022,01:42:38,0.000,0.0,0.0,0.0
18/10/2022,01:43:38,0.000,0.0,0.0,0.0
18/10/2022,01:44:38,0.001,0.0,0.0,0.0
18/10/2022,01:45:38,0.002,0.0,0.0,0.0
18/10/2022,01:46:38,0.001,0.0,0.0,0.0
18/10/2022,01:47:38,0.001,0.0,0.0,0.0
18/10/2022,01:48:38,0.001,0.0,0.0,0.0
18/10/2022,01:49:38,0.001,0.0,0.0,0.0
18/10/2022,01:50:38,0.001,0.0,0.0,0.0
18/10/2022,01:51:38,0.001,0.0,0.0,0.0
18/10/2022,01:52:38,0.001,0.0,0.0,0.0
18/10/2022,01:53:38,0.001,0.0,0.0,0.0
18/10/2022,01:54:41,0.002,0.0,0.0,0.0
18/10/2022,01:55:39,0.001,0.0,0.0,0.0
18/10/2022,01:56:38,0.001,0.0,0.0,0.0
18/10/2022,01:57:38,0.001,0.0,0.0,0.0
18/10/2022,01:58:38,0.001,0.0,0.0,0.0
18/10/2022,01:59:38,0.001,0.0,0.0,0.0
18/10/2022,02:00:38,0.001,0.0,0.0,0.0
18/10/2022,02:01:38,0.001,0.0,0.0,0.0
18/10/2022,02:02:38,0.001,0.0,0.0,0.0
18/10/2022,02:03:39,0.002,0.0,0.0,0.0
18/10/2022,02:04:38,0.001,0.0,0.0,0.0
18/10/2022,02:05:38,0.000,0.0,0.0,0.0
18/10/2022,02:06:38,0.001,0.0,0.0,0.0
18/10/2022,02:07:38,0.001,0.0,0.0,0.0
18/10/2022,02:08:38,-0.000,0.0,0.0,0.0
18/10/2022,02:09:38,0.001,0.0,0.0,0.0
18/10/2022,02:10:38,0.001,0.0,0.0,0.0
18/10/2022,02:11:38,-0.000,0.0,0.0,0.0
18/10/2022,02:13:54,0.002,0.0,0.0,0.0
18/10/2022,02:14:38,-0.000,0.0,0.0,0.0
18/10/2022,02:15:38,0.001,0.0,0.0,0.0
18/10/2022,02:16:38,0.001,0.0,0.0,0.0
18/10/2022,02:17:38,0.001,0.0,0.0,0.0
18/10/2022,02:18:38,0.001,0.0,0.0,0.0
18/10/2022,02:19:38,0.001,0.0,0.0,0.0
18/10/2022,02:20:39,0.001,0.0,0.0,0.0
18/10/2022,02:21:38,0.001,0.0,0.0,0.0
18/10/2022,02:22:39,0.001,0.0,0.0,0.0
18/10/2022,02:23:38,0.001,0.0,0.0,0.0
18/10/2022,02:24:38,0.001,0.0,0.0,0.0
18/10/2022,02:25:38,0.002,0.0,0.0,0.0
18/10/2022,02:26:38,0.001,0.0,0.0,0.0
18/10/2022,02:27:38,0.002,0.0,0.0,0.0
18/10/2022,02:29:55,0.001,0.0,0.0,0.0
18/10/2022,02:30:38,-0.000,0.0,0.0,0.0
18/10/2022,02:31:38,0.001,0.0,0.0,0.0
18/10/2022,02:32:38,0.001,0.0,0.0,0.0
18/10/2022,02:33:38,-0.000,0.0,0.0,0.0
18/10/2022,02:34:39,0.001,0.0,0.0,0.0
18/10/2022,02:35:38,0.000,0.0,0.0,0.0
18/10/2022,02:36:39,0.001,0.0,0.0,0.0
18/10/2022,02:37:39,0.001,0.0,0.0,0.0
18/10/2022,02:38:38,0.001,0.0,0.0,0.0
18/10/2022,02:39:38,0.000,0.0,0.0,0.0
18/10/2022,02:40:38,0.001,0.0,0.0,0.0
18/10/2022,02:41:39,0.001,0.0,0.0,0.0
18/10/2022,02:42:38,0.001,0.0,0.0,0.0
18/10/2022,02:43:39,0.001,0.0,0.0,0.0
18/10/2022,02:44:38,0.000,0.0,0.0,0.0
18/10/2022,02:45:38,0.001,0.0,0.0,0.0
18/10/2022,02:46:38,0.001,0.0,0.0,0.0
18/10/2022,02:47:39,0.001,0.0,0.0,0.0
18/10/2022,02:48:38,0.001,0.0,0.0,0.0
18/10/2022,02:49:38,0.000,0.0,0.0,0.0
18/10/2022,02:50:38,0.001,0.0,0.0,0.0
18/10/2022,02:51:39,0.001,0.0,0.0,0.0
18/10/2022,02:52:38,0.001,0.0,0.0,0.0
18/10/2022,02:53:38,0.001,0.0,0.0,0.0
18/10/2022,02:54:39,0.002,0.0,0.0,0.0
18/10/2022,02:55:38,0.001,0.0,0.0,0.0
18/10/2022,02:56:38,0.001,0.0,0.0,0.0
18/10/2022,02:57:39,0.001,0.0,0.0,0.0
18/10/2022,02:58:38,0.001,0.0,0.0,0.0
18/10/2022,02:59:38,0.002,0.0,0.0,0.0
18/10/2022,03:00:38,0.002,0.0,0.0,0.0
18/10/2022,03:01:38,0.002,0.0,0.0,0.0
18/10/2022,03:02:38,0.001,0.0,0.0,0.0
18/10/2022,03:03:38,0.001,0.0,0.0,0.0
18/10/2022,03:04:39,0.002,0.0,0.0,0.0
18/10/2022,03:05:39,0.002,0.0,0.0,0.0
18/10/2022,03:06:38,0.001,0.0,0.0,0.0
18/10/2022,03:07:39,0.001,0.0,0.0,0.0
18/10/2022,03:08:38,0.001,0.0,0.0,0.0
18/10/2022,03:09:39,0.001,0.0,0.0,0.0
18/10/2022,03:10:38,0.001,0.0,0.0,0.0
18/10/2022,03:11:38,0.001,0.0,0.0,0.0
18/10/2022,03:12:38,0.001,0.0,0.0,0.0
18/10/2022,03:13:38,0.001,0.0,0.0,0.0
18/10/2022,03:14:38,0.002,0.0,0.0,0.0
18/10/2022,03:15:38,0.001,0.0,0.0,0.0
18/10/2022,03:16:39,0.001,0.0,0.0,0.0
18/10/2022,03:18:54,0.001,0.0,0.0,0.0
18/10/2022,03:19:38,0.001,0.0,0.0,0.0
18/10/2022,03:20:38,0.002,0.0,0.0,0.0
18/10/2022,03:21:38,0.001,0.0,0.0,0.0
18/10/2022,03:22:38,0.001,0.0,0.0,0.0
18/10/2022,03:23:39,0.001,0.0,0.0,0.0
18/10/2022,03:24:38,0.001,0.0,0.0,0.0
18/10/2022,03:25:42,0.001,0.0,0.0,0.0
18/10/2022,03:26:39,0.001,0.0,0.0,0.0
18/10/2022,03:27:38,0.001,0.0,0.0,0.0
18/10/2022,03:28:39,0.001,0.0,0.0,0.0
18/10/2022,03:29:38,0.001,0.0,0.0,0.0
18/10/2022,03:30:38,0.002,0.0,0.0,0.0
18/10/2022,03:31:39,0.001,0.0,0.0,0.0
18/10/2022,03:32:38,0.001,0.0,0.0,0.0
18/10/2022,03:33:38,0.001,0.0,0.0,0.0
18/10/2022,03:34:38,0.001,0.0,0.0,0.0
18/10/2022,03:35:38,0.001,0.0,0.0,0.0
18/10/2022,03:36:39,0.001,0.0,0.0,0.0
18/10/2022,03:37:38,0.001,0.0,0.0,0.0
18/10/2022,03:38:38,0.001,0.0,0.0,0.0
18/10/2022,03:39:39,0.001,0.0,0.0,0.0
18/10/2022,03:40:38,0.002,0.0,0.0,0.0
18/10/2022,03:41:38,0.001,0.0,0.0,0.0
18/10/2022,03:42:38,0.001,0.0,0.0,0.0
18/10/2022,03:43:38,0.002,0.0,0.0,0.0
18/10/2022,03:44:38,0.001,0.0,0.0,0.0
18/10/2022,03:45:39,0.001,0.0,0.0,0.0
18/10/2022,03:46:38,0.001,0.0,0.0,0.0
18/10/2022,03:47:39,0.001,0.0,0.0,0.0
18/10/2022,03:48:38,0.001,0.0,0.0,0.0
18/10/2022,03:49:38,0.002,0.0,0.0,0.0
18/10/2022,03:50:38,0.001,0.0,0.0,0.0
18/10/2022,03:51:38,0.001,0.0,0.0,0.0
18/10/2022,03:52:39,0.001,0.0,0.0,0.0
18/10/2022,03:53:38,0.000,0.0,0.0,0.0
18/10/2022,03:54:38,0.002,0.0,0.0,0.0
18/10/2022,03:55:38,0.002,0.0,0.0,0.0
18/10/2022,03:56:39,0.002,0.0,0.0,0.0
18/10/2022,03:57:38,0.001,0.0,0.0,0.0
18/10/2022,03:58:38,0.001,0.0,0.0,0.0
18/10/2022,03:59:38,0.001,0.0,0.0,0.0
18/10/2022,04:00:38,0.002,0.0,0.0,0.0
18/10/2022,04:01:39,0.001,0.0,0.0,0.0
18/10/2022,04:02:38,0.001,0.0,0.0,0.0
18/10/2022,04:03:38,0.001,0.0,0.0,0.0
18/10/2022,04:04:38,0.001,0.0,0.0,0.0
18/10/2022,04:05:39,0.001,0.0,0.0,0.0
18/10/2022,04:06:38,0.001,0.0,0.0,0.0
18/10/2022,04:07:39,0.001,0.0,0.0,0.0
18/10/2022,04:08:38,0.002,0.0,0.0,0.0
18/10/2022,04:09:38,0.002,0.0,0.0,0.0
18/10/2022,04:10:38,0.002,0.0,0.0,0.0
18/10/2022,04:11:39,0.002,0.0,0.0,0.0
18/10/2022,04:12:38,0.002,0.0,0.0,0.0
18/10/2022,04:13:38,0.002,0.0,0.0,0.0
18/10/2022,04:14:39,0.002,0.0,0.0,0.0
18/10/2022,04:15:39,0.002,0.0,0.0,0.0
18/10/2022,04:16:38,0.002,0.0,0.0,0.0
18/10/2022,04:17:39,0.002,0.0,0.0,0.0
18/10/2022,04:18:38,0.002,0.0,0.0,0.0
18/10/2022,04:19:39,0.002,0.0,0.0,0.0
18/10/2022,04:20:38,0.002,0.0,0.0,0.0
18/10/2022,04:21:38,0.002,0.0,0.0,0.0
18/10/2022,04:22:38,0.002,0.0,0.0,0.0
18/10/2022,04:23:39,0.002,0.0,0.0,0.0
18/10/2022,04:24:38,0.002,0.0,0.0,0.0
18/10/2022,04:25:38,0.002,0.0,0.0,0.0
18/10/2022,04:26:38,0.002,0.0,0.0,0.0
18/10/2022,04:27:39,0.002,0.0,0.0,0.0
18/10/2022,04:28:38,0.002,0.0,0.0,0.0
18/10/2022,04:29:39,0.002,0.0,0.0,0.0
18/10/2022,04:30:38,0.002,0.0,0.0,0.0
18/10/2022,04:31:38,0.002,0.0,0.0,0.0
18/10/2022,04:32:38,0.002,0.0,0.0,0.0
18/10/2022,04:33:38,0.002,0.0,0.0,0.0
18/10/2022,04:34:39,0.002,0.0,0.0,0.0
18/10/2022,04:35:38,0.002,0.0,0.0,0.0
18/10/2022,04:36:39,0.003,0.0,0.0,0.0
18/10/2022,04:37:38,0.002,0.0,0.0,0.0
18/10/2022,04:38:39,0.002,0.0,0.0,0.0
18/10/2022,04:39:39,0.002,0.0,0.0,0.0
18/10/2022,04:40:38,0.002,0.0,0.0,0.0
18/10/2022,04:41:39,0.002,0.0,0.0,0.0
18/10/2022,04:42:38,0.002,0.0,0.0,0.0
18/10/2022,04:43:39,0.002,0.0,0.0,0.0
18/10/2022,04:44:38,0.002,0.0,0.0,0.0
18/10/2022,04:45:39,0.002,0.0,0.0,0.0
18/10/2022,04:46:40,0.002,0.0,0.0,0.0
18/10/2022,04:47:38,0.002,0.0,0.0,0.0
18/10/2022,04:48:38,0.002,0.0,0.0,0.0
18/10/2022,04:49:38,0.002,0.0,0.0,0.0
18/10/2022,04:50:38,0.002,0.0,0.0,0.0
18/10/2022,04:51:39,0.002,0.0,0.0,0.0
18/10/2022,04:52:38,0.003,0.0,0.0,0.0
18/10/2022,04:53:38,0.002,0.0,0.0,0.0
18/10/2022,04:54:38,0.002,0.0,0.0,0.0
18/10/2022,04:55:39,0.001,0.0,0.0,0.0
18/10/2022,04:56:38,0.002,0.0,0.0,0.0
18/10/2022,04:57:39,0.002,0.0,0.0,0.0
18/10/2022,04:58:38,0.002,0.0,0.0,0.0
18/10/2022,04:59:39,0.002,0.0,0.0,0.0
18/10/2022,05:00:38,0.002,0.0,0.0,0.0
18/10/2022,05:01:38,0.002,0.0,0.0,0.0
18/10/2022,05:02:38,0.002,0.0,0.0,0.0
18/10/2022,05:03:38,0.002,0.0,0.0,0.0
18/10/2022,05:04:38,0.002,0.0,0.0,0.0
18/10/2022,05:05:39,0.002,0.0,0.0,0.0
18/10/2022,05:06:38,0.002,0.0,0.0,0.0
18/10/2022,05:07:39,0.002,0.0,0.0,0.0
18/10/2022,05:08:38,0.002,0.0,0.0,0.0
18/10/2022,05:09:38,0.002,0.0,0.0,0.0
18/10/2022,05:10:38,0.002,0.0,0.0,0.0
18/10/2022,05:11:39,0.002,0.0,0.0,0.0
18/10/2022,05:12:38,0.002,0.0,0.0,0.0
18/10/2022,05:13:38,0.002,0.0,0.0,0.0
18/10/2022,05:14:39,0.002,0.0,0.0,0.0
18/10/2022,05:15:41,0.001,0.0,0.0,0.0
18/10/2022,05:16:38,0.002,0.0,0.0,0.0
18/10/2022,05:17:38,0.002,0.0,0.0,0.0
18/10/2022,05:18:38,0.002,0.0,0.0,0.0
18/10/2022,05:19:38,0.002,0.0,0.0,0.0
18/10/2022,05:20:38,0.002,0.0,0.0,0.0
18/10/2022,05:21:39,0.002,0.0,0.0,0.0
18/10/2022,05:22:38,0.002,0.0,0.0,0.0
18/10/2022,05:23:38,0.002,0.0,0.0,0.0
18/10/2022,05:24:38,0.002,0.0,0.0,0.0
18/10/2022,05:25:38,0.002,0.0,0.0,0.0
18/10/2022,05:26:39,0.002,0.0,0.0,0.0
18/10/2022,05:27:38,0.002,0.0,0.0,0.0
18/10/2022,05:28:38,0.002,0.0,0.0,0.0
18/10/2022,05:29:38,0.003,0.0,0.0,0.0
18/10/2022,05:30:38,0.002,0.0,0.0,0.0
18/10/2022,05:31:39,0.002,0.0,0.0,0.0
18/10/2022,05:32:38,0.002,0.0,0.0,0.0
18/10/2022,05:33:38,0.002,0.0,0.0,0.0
18/10/2022,05:34:38,0.002,0.0,0.0,0.0
18/10/2022,05:35:39,0.002,0.0,0.0,0.0
18/10/2022,05:36:38,0.002,0.0,0.0,0.0
18/10/2022,05:37:39,0.002,0.0,0.0,0.0
18/10/2022,05:38:39,0.002,0.0,0.0,0.0
18/10/2022,05:39:38,0.002,0.0,0.0,0.0
18/10/2022,05:40:39,0.002,0.0,0.0,0.0
18/10/2022,05:41:38,0.003,0.0,0.0,0.0
18/10/2022,05:42:38,0.002,0.0,0.0,0.0
18/10/2022,05:43:39,0.002,0.0,0.0,0.0
18/10/2022,05:44:39,0.002,0.0,0.0,0.0
18/10/2022,05:45:38,0.002,0.0,0.0,0.0
18/10/2022,05:46:38,0.002,0.0,0.0,0.0
18/10/2022,05:47:39,0.002,0.0,0.0,0.0
18/10/2022,05:48:39,0.002,0.0,0.0,0.0
18/10/2022,05:49:39,0.002,0.0,0.0,0.0
18/10/2022,05:50:38,0.002,0.0,0.0,0.0
18/10/2022,05:51:39,0.002,0.0,0.0,0.0
18/10/2022,05:52:38,0.002,0.0,0.0,0.0
18/10/2022,05:53:38,0.003,0.0,0.0,0.0
18/10/2022,05:54:39,0.002,0.0,0.0,0.0
18/10/2022,05:55:38,0.002,0.0,0.0,0.0
18/10/2022,05:56:39,0.002,0.0,0.0,0.0
18/10/2022,05:57:38,0.001,0.0,0.0,0.0
18/10/2022,05:58:39,0.002,0.0,0.0,0.0
18/10/2022,05:59:38,0.002,0.0,0.0,0.0
18/10/2022,06:00:38,0.003,0.0,0.0,0.0
18/10/2022,06:01:39,0.002,0.0,0.0,0.0
18/10/2022,06:02:38,0.002,0.0,0.0,0.0
18/10/2022,06:03:38,0.003,0.0,0.0,0.0
18/10/2022,06:04:39,0.002,0.0,0.0,0.0
18/10/2022,06:05:38,0.002,0.0,0.0,0.0
18/10/2022,06:06:38,0.002,0.0,0.0,0.0
18/10/2022,06:07:39,0.002,0.0,0.0,0.0
18/10/2022,06:08:38,0.001,0.0,0.0,0.0
18/10/2022,06:09:38,0.002,0.0,0.0,0.0
18/10/2022,06:10:39,0.002,0.0,0.0,0.0
18/10/2022,06:11:39,0.003,0.0,0.0,0.0
18/10/2022,06:12:38,0.003,0.0,0.0,0.0
18/10/2022,06:13:39,0.002,0.0,0.0,0.0
18/10/2022,06:14:38,0.002,0.0,0.0,0.0
18/10/2022,06:15:39,0.002,0.0,0.0,0.0
18/10/2022,06:16:38,0.003,0.0,0.0,0.0
18/10/2022,06:17:39,0.002,0.0,0.0,0.0
18/10/2022,06:18:38,0.002,0.0,0.0,0.0
18/10/2022,06:19:39,0.003,0.0,0.0,0.0
18/10/2022,06:20:39,0.003,0.0,0.0,0.0
18/10/2022,06:21:39,0.003,0.0,0.0,0.0
18/10/2022,06:22:39,0.003,0.0,0.0,0.0
18/10/2022,06:23:38,0.002,0.0,0.0,0.0
18/10/2022,06:24:39,0.003,0.0,0.0,0.0
18/10/2022,06:25:38,0.002,0.0,0.0,0.0
18/10/2022,06:26:39,0.004,0.0,0.0,0.0
18/10/2022,06:27:38,0.002,0.0,0.0,0.0
18/10/2022,06:28:39,0.003,0.0,0.0,0.0
18/10/2022,06:29:38,0.004,0.0,0.0,0.0
18/10/2022,06:30:38,0.004,0.0,0.0,0.0
18/10/2022,06:31:39,0.004,0.0,0.0,0.0
18/10/2022,06:32:38,0.004,0.0,0.0,0.0
18/10/2022,06:33:38,0.004,0.0,0.0,0.0
18/10/2022,06:34:39,0.004,0.0,0.0,0.0
18/10/2022,06:35:38,0.004,0.0,0.0,0.0
18/10/2022,06:36:39,0.005,0.0,0.0,0.0
18/10/2022,06:37:38,0.005,0.0,0.0,0.0
18/10/2022,06:39:14,0.005,0.0,0.0,0.0
18/10/2022,06:41:57,0.006,0.0,0.0,0.0
18/10/2022,06:42:38,0.006,0.0,0.0,0.0
18/10/2022,06:43:39,0.006,0.0,0.0,0.0
18/10/2022,06:44:38,0.006,0.0,0.0,0.0
18/10/2022,06:45:38,0.007,0.0,0.0,0.0
18/10/2022,06:46:39,0.007,0.0,0.0,0.0
18/10/2022,06:47:38,0.006,0.0,0.0,0.0
18/10/2022,06:48:39,0.007,0.0,0.001,0.001
18/10/2022,06:49:40,0.009,0.0,0.001,0.0
18/10/2022,06:50:39,0.007,0.0,0.001,0.0
18/10/2022,06:51:39,0.009,0.0,0.001,0.0
18/10/2022,06:52:38,0.010,0.0,0.001,0.0
18/10/2022,06:53:39,0.009,0.0,0.001,0.0
18/10/2022,06:54:39,0.010,0.0,0.001,0.0
18/10/2022,06:55:38,0.011,0.0,0.002,0.001
18/10/2022,06:56:38,0.011,0.0,0.002,0.0
18/10/2022,06:57:39,0.011,0.0,0.002,0.0
18/10/2022,06:58:38,0.012,0.0,0.002,0.0
18/10/2022,06:59:39,0.011,0.0,0.002,0.0
18/10/2022,07:00:38,0.013,0.0,0.003,0.001
18/10/2022,07:01:38,0.012,0.0,0.003,0.0
18/10/2022,07:02:39,0.014,0.0,0.003,0.0
18/10/2022,07:03:39,0.014,0.0,0.003,0.0
18/10/2022,07:04:39,0.015,0.0,0.003,0.0
18/10/2022,07:05:38,0.015,0.0,0.004,0.001
18/10/2022,07:06:39,0.015,0.0,0.004,0.0
18/10/2022,07:07:38,0.017,0.0,0.004,0.0
18/10/2022,07:08:38,0.018,0.0,0.005,0.001
18/10/2022,07:09:39,0.018,0.0,0.005,0.0
18/10/2022,07:10:39,0.018,0.0,0.005,0.0
18/10/2022,07:11:38,0.018,0.0,0.005,0.0
18/10/2022,07:12:38,0.019,0.0,0.006,0.001
18/10/2022,07:13:39,0.020,0.0,0.006,0.0
18/10/2022,07:14:39,0.019,0.0,0.006,0.0
18/10/2022,07:15:39,0.021,0.0,0.007,0.001
18/10/2022,07:16:39,0.021,0.0,0.007,0.0
18/10/2022,07:17:38,0.022,0.0,0.007,0.0
18/10/2022,07:18:39,0.023,0.0,0.008,0.001
18/10/2022,07:19:38,0.024,0.0,0.008,0.0
18/10/2022,07:20:40,0.025,0.0,0.009,0.001
18/10/2022,07:21:39,0.025,0.0,0.009,0.0
18/10/2022,07:22:38,0.026,0.0,0.009,0.0
18/10/2022,07:23:39,0.028,0.0,0.01,0.001
18/10/2022,07:24:39,0.028,0.0,0.01,0.0
18/10/2022,07:25:39,0.029,0.0,0.011,0.001
18/10/2022,07:26:39,0.030,0.0,0.011,0.0
18/10/2022,07:27:38,0.031,0.0,0.012,0.001
18/10/2022,07:28:39,0.032,0.0,0.012,0.0
18/10/2022,07:29:39,0.033,0.0,0.013,0.001
18/10/2022,07:30:39,0.033,0.0,0.013,0.0
18/10/2022,07:31:39,0.034,0.0,0.014,0.001
18/10/2022,07:32:39,0.036,0.0,0.015,0.001
18/10/2022,07:33:38,0.036,0.0,0.015,0.0
18/10/2022,07:34:38,0.037,0.0,0.016,0.001
18/10/2022,07:35:39,0.039,0.0,0.016,0.0
18/10/2022,07:36:39,0.039,0.0,0.017,0.001
18/10/2022,07:37:38,0.041,0.0,0.018,0.001
18/10/2022,07:38:38,0.042,0.0,0.018,0.0
18/10/2022,07:39:39,0.043,0.0,0.019,0.001
18/10/2022,07:40:38,0.044,0.0,0.02,0.001
18/10/2022,07:41:38,0.046,0.0,0.021,0.001
18/10/2022,07:42:39,0.048,0.0,0.021,0.0
18/10/2022,07:43:39,0.048,0.0,0.022,0.001
18/10/2022,07:44:38,0.050,0.0,0.023,0.001
18/10/2022,07:45:39,0.051,0.0,0.024,0.001
18/10/2022,07:46:38,0.054,0.0,0.025,0.001
18/10/2022,07:47:38,0.055,0.0,0.026,0.001
18/10/2022,07:48:39,0.056,0.0,0.026,0.0
18/10/2022,07:49:39,0.058,0.0,0.027,0.001
18/10/2022,07:50:38,0.058,0.0,0.028,0.001
18/10/2022,07:51:39,0.060,0.0,0.029,0.001
18/10/2022,07:52:38,0.063,0.0,0.03,0.001
18/10/2022,07:53:39,0.064,0.0,0.031,0.001
18/10/2022,07:54:39,0.066,0.0,0.033,0.002
18/10/2022,07:55:38,0.068,0.0,0.034,0.001
18/10/2022,07:56:39,0.069,0.0,0.035,0.001
18/10/2022,07:57:39,0.070,0.0,0.036,0.001
18/10/2022,07:58:38,0.071,0.0,0.037,0.001
18/10/2022,07:59:39,0.073,0.0,0.038,0.001
18/10/2022,08:00:39,0.075,0.0,0.04,0.002
18/10/2022,08:01:39,0.076,0.0,0.041,0.001
18/10/2022,08:02:38,0.078,0.0,0.042,0.001
18/10/2022,08:03:39,0.079,0.0,0.043,0.001
18/10/2022,08:04:39,0.080,0.0,0.045,0.002
18/10/2022,08:05:39,0.081,0.0,0.046,0.001
18/10/2022,08:06:39,0.083,0.0,0.047,0.001
18/10/2022,08:07:39,0.085,0.0,0.049,0.002
18/10/2022,08:08:39,0.086,0.0,0.05,0.001
18/10/2022,08:09:42,0.089,0.0,0.052,0.002
18/10/2022,08:10:39,0.091,0.0,0.053,0.001
18/10/2022,08:11:39,0.093,0.0,0.055,0.002
18/10/2022,08:12:38,0.094,0.0,0.056,0.001
18/10/2022,08:13:39,0.096,0.0,0.058,0.002
18/10/2022,08:14:38,0.096,0.0,0.06,0.002
18/10/2022,08:15:39,0.097,0.0,0.061,0.001
18/10/2022,08:16:38,0.098,0.0,0.063,0.002
18/10/2022,08:17:38,0.100,0.0,0.064,0.001
18/10/2022,08:18:39,0.102,0.0,0.066,0.002
18/10/2022,08:19:39,0.106,0.0,0.068,0.002
18/10/2022,08:20:39,0.108,0.0,0.07,0.002
18/10/2022,08:21:39,0.112,0.0,0.072,0.002
18/10/2022,08:22:39,0.114,0.0,0.073,0.001
18/10/2022,08:23:38,0.116,0.0,0.075,0.002
18/10/2022,08:24:39,0.118,0.0,0.077,0.002
18/10/2022,08:25:39,0.120,0.0,0.079,0.002
18/10/2022,08:26:38,0.124,0.0,0.081,0.002
18/10/2022,08:27:39,0.127,0.0,0.083,0.002
18/10/2022,08:28:39,0.129,0.0,0.086,0.003
18/10/2022,08:29:38,0.131,0.0,0.088,0.002
18/10/2022,08:30:38,0.133,0.0,0.09,0.002
18/10/2022,08:31:39,0.135,0.0,0.092,0.002
18/10/2022,08:32:39,0.135,0.0,0.094,0.002
18/10/2022,08:33:39,0.137,0.0,0.097,0.003
18/10/2022,08:34:39,0.138,0.0,0.099,0.002
18/10/2022,08:35:39,0.139,0.0,0.101,0.002
18/10/2022,08:36:39,0.139,0.0,0.104,0.003
18/10/2022,08:37:39,0.140,0.0,0.106,0.002
18/10/2022,08:38:39,0.141,0.0,0.108,0.002
18/10/2022,08:39:39,0.144,0.0,0.111,0.003
18/10/2022,08:40:38,0.148,0.0,0.113,0.002
18/10/2022,08:41:39,0.151,0.0,0.116,0.003
18/10/2022,08:42:38,0.156,0.0,0.118,0.002
18/10/2022,08:43:38,0.156,0.0,0.121,0.003
18/10/2022,08:44:38,0.159,0.0,0.123,0.002
18/10/2022,08:45:39,0.162,0.0,0.126,0.003
18/10/2022,08:46:39,0.167,0.0,0.129,0.003
18/10/2022,08:47:39,0.169,0.0,0.132,0.003
18/10/2022,08:48:38,0.170,0.0,0.134,0.002
18/10/2022,08:49:39,0.172,0.0,0.137,0.003
18/10/2022,08:50:39,0.171,0.0,0.14,0.003
18/10/2022,08:51:39,0.175,0.0,0.143,0.003
18/10/2022,08:52:39,0.175,0.0,0.146,0.003
18/10/2022,08:53:39,0.177,0.0,0.149,0.003
18/10/2022,08:54:39,0.183,0.0,0.152,0.003
18/10/2022,08:55:39,0.187,0.0,0.155,0.003
18/10/2022,08:56:39,0.190,0.0,0.158,0.003
18/10/2022,08:57:39,0.189,0.0,0.161,0.003
18/10/2022,08:58:38,0.190,0.0,0.164,0.003
18/10/2022,08:59:39,0.197,0.0,0.168,0.004
18/10/2022,09:00:39,0.202,0.0,0.171,0.003
18/10/2022,09:01:38,0.204,0.0,0.174,0.003
18/10/2022,09:03:56,0.213,0.0,0.183,0.009
18/10/2022,09:04:39,0.211,0.0,0.185,0.002
18/10/2022,09:05:39,0.210,0.0,0.189,0.004
18/10/2022,09:06:38,0.213,0.0,0.192,0.003
18/10/2022,09:07:38,0.212,0.0,0.196,0.004
18/10/2022,09:08:39,0.199,0.0,0.199,0.003
18/10/2022,09:09:38,0.198,0.0,0.202,0.003
18/10/2022,09:10:39,0.196,0.0,0.206,0.004
18/10/2022,09:11:38,0.193,0.0,0.209,0.003
18/10/2022,09:12:38,0.195,0.0,0.212,0.003
18/10/2022,09:13:39,0.197,0.0,0.215,0.003
18/10/2022,09:14:38,0.198,0.0,0.219,0.004
18/10/2022,09:15:38,0.208,0.0,0.222,0.003
18/10/2022,09:16:39,0.219,1.0,0.226,0.004
18/10/2022,09:17:39,0.220,1.0,0.229,0.003
18/10/2022,09:18:39,0.226,1.0,0.233,0.004
18/10/2022,09:19:39,0.223,1.0,0.237,0.004
18/10/2022,09:20:39,0.219,1.0,0.24,0.003
18/10/2022,09:21:39,0.219,1.0,0.244,0.004
18/10/2022,09:22:39,0.216,0.0,0.248,0.004
18/10/2022,09:23:38,0.220,1.0,0.251,0.003
18/10/2022,09:24:39,0.219,1.0,0.255,0.004
18/10/2022,09:25:39,0.221,1.0,0.259,0.004
18/10/2022,09:26:39,0.229,1.0,0.263,0.004
18/10/2022,09:27:39,0.229,1.0,0.266,0.003
18/10/2022,09:28:39,0.233,1.0,0.27,0.004
18/10/2022,09:29:39,0.232,1.0,0.274,0.004
18/10/2022,09:30:39,0.232,1.0,0.278,0.004
18/10/2022,09:31:39,0.230,1.0,0.282,0.004
18/10/2022,09:32:39,0.235,1.0,0.286,0.004
18/10/2022,09:33:38,0.245,1.0,0.29,0.004
18/10/2022,09:34:39,0.254,1.0,0.294,0.004
18/10/2022,09:35:39,0.259,1.0,0.298,0.004
18/10/2022,09:36:39,0.260,1.0,0.303,0.005
18/10/2022,09:37:39,0.250,1.0,0.307,0.004
18/10/2022,09:38:39,0.264,1.0,0.311,0.004
18/10/2022,09:39:39,0.264,1.0,0.315,0.004
18/10/2022,09:40:39,0.261,1.0,0.32,0.005
18/10/2022,09:41:38,0.262,1.0,0.324,0.004
18/10/2022,09:42:39,0.266,1.0,0.329,0.005
18/10/2022,09:43:39,0.279,1.0,0.333,0.004
18/10/2022,09:44:39,0.290,1.0,0.338,0.005
18/10/2022,09:45:39,0.297,1.0,0.343,0.005
18/10/2022,09:46:39,0.302,1.0,0.348,0.005
18/10/2022,09:47:39,0.309,1.0,0.353,0.005
18/10/2022,09:48:39,0.297,1.0,0.358,0.005
18/10/2022,09:49:39,0.299,1.0,0.363,0.005
18/10/2022,09:50:40,0.306,1.0,0.368,0.005
18/10/2022,09:51:40,0.311,1.0,0.373,0.005
18/10/2022,09:52:38,0.309,1.0,0.378,0.005
18/10/2022,09:53:39,0.318,1.0,0.384,0.006
18/10/2022,09:54:39,0.311,1.0,0.388,0.004
18/10/2022,09:55:39,0.324,1.0,0.394,0.006
18/10/2022,09:56:39,0.330,1.0,0.399,0.005
18/10/2022,09:57:39,0.344,1.0,0.405,0.006
18/10/2022,09:58:39,0.337,1.0,0.411,0.006
18/10/2022,09:59:39,0.324,1.0,0.416,0.005
18/10/2022,10:00:39,0.328,1.0,0.422,0.006
18/10/2022,10:03:25,0.348,1.0,0.437,0.015
18/10/2022,10:05:39,0.337,1.0,0.45,0.013
18/10/2022,10:06:39,0.329,1.0,0.456,0.006
18/10/2022,10:07:39,0.338,1.0,0.461,0.005
18/10/2022,10:08:39,0.329,1.0,0.466,0.005
18/10/2022,10:09:39,0.337,1.0,0.472,0.006
18/10/2022,10:10:39,0.333,1.0,0.478,0.006
18/10/2022,10:11:38,0.331,1.0,0.483,0.005
18/10/2022,10:12:39,0.327,1.0,0.489,0.006
18/10/2022,10:13:39,0.329,1.0,0.494,0.005
18/10/2022,10:14:39,0.342,1.0,0.5,0.006
18/10/2022,10:15:38,0.358,1.0,0.506,0.006
18/10/2022,10:16:39,0.362,1.0,0.512,0.006
18/10/2022,10:17:39,0.373,1.0,0.518,0.006
18/10/2022,10:18:40,0.365,1.0,0.524,0.006